Location: ?????
(30.2541°N, 31.0910°E)
Time: 12:50:36
(UTC+00:00)

Cosmos 1605 Rocket - Pass Details

Date: 27 September 2022
Orbit: 946 x 1004 km, 82.9° (Epoch: 26 November)

Event Time Altitude Azimuth Distance (km) Brightness Sun altitude
Exits shadow 01:24:21 76° 96° (E) 978 4.0 -31.1°
Maximum altitude 01:24:22 76° 94° (E) 978 4.0 -31.1°
Drops below altitude 10° 01:30:27 10° 9° (N) 2,669 6.6 -29.8°
Sets 01:32:56 0° 8° (N) 3,616 7.3 -29.3°
